Temp
9 9 9 10 10 10 10 10 10 10 10 11 11 12 12 13 13 13 13 12 12 11 11 11 11 11 11 11 12 13 14 14 13 13 13 13 13 13 13 13 13 13 12 12 12 12 12 12 12 12 12 12 12 12 12 12 12 12 12 12 12 12 12 12 12 12 13 13 13
9 9 9 9 9 9 10 10 10 10 10 10 11 11 12 12 13 12 12 12 11 11 11 10 10 10 10 10 10 11 11 12 13 13 13 13 12 12 12 12 12 12 12 12 12 12 12 12 12 12 12 12 12 12 12 12 12 12 12 12 12 12 12 12 12 12 12 12 12
8 9 9 9 9 9 9 9 9 9 9 10 10 11 12 12 12 12 12 11 11 11 10 10 10 10 10 10 10 10 10 10 11 12 12 12 12 12 12 12 12 12 12 12 12 12 12 12 11 11 11 11 11 11 11 11 11 11 11 11 11 11 11 12 12 12 12 12 12
8 8 8 8 8 9 9 9 9 9 9 9 10 10 11 12 12 12 12 11 11 10 10 10 10 10 10 10 10 10 10 10 11 12 12 12 12 12 12 12 12 12 11 11 11 11 11 11 11 11 11 11 11 11 11 11 11 11 11 11 11 11 11 11 11 11 11 11 12
7 7 7 8 8 8 8 9 9 9 9 9 9 10 10 11 11 11 11 11 11 10 10 10 10 10 9 10 10 11 11 11 11 12 12 12 12 12 12 12 12 12 11 11 11 11 11 11 11 11 11 11 11 11 11 11 11 11 11 11 11 11 11 11 11 11 11 11 11
7 7 7 7 7 7 8 8 8 9 9 9 9 9 9 10 11 11 10 10 10 10 10 9 9 9 9 9 10 10 11 11 11 11 11 11 11 11 11 11 12 12 12 12 12 11 11 11 11 11 10 10 10 10 10 11 11 11 11 11 11 11 11 11 11 11 11 11 11
6 6 6 6 7 7 7 8 8 8 8 8 8 8 9 9 9 10 10 10 9 9 9 9 9 9 9 9 10 10 10 11 11 11 11 11 11 11 11 11 11 11 11 11 11 11 11 11 11 10 10 10 10 10 10 10 10 10 11 11 11 11 11 11 11 11 11 11 11
6 6 6 6 6 6 7 7 7 7 8 8 8 8 8 8 9 9 9 9 9 9 9 9 9 9 9 9 9 10 10 10 10 10 10 10 10 10 10 10 10 10 10 10 10 10 10 10 10 10 10 10 10 10 10 10 10 10 10 10 10 10 10 10 10 10 10 10 10
5 5 5 5 5 5 6 6 6 6 7 7 7 7 8 8 8 8 8 8 8 9 9 9 8 8 8 8 9 9 9 9 9 9 9 9 10 10 10 10 10 10 10 10 10 10 9 9 9 9 9 9 9 9 9 9 9 10 10 10 10 10 10 10 10 10 10 10 10
4 4 4 4 4 5 5 5 5 5 6 6 6 7 7 7 7 8 8 8 8 8 8 8 8 8 8 8 8 8 8 8 8 8 8 8 9 9 9 9 9 9 9 9 9 9 9 9 9 9 9 9 9 9 9 9 9 9 9 9 9 9 9 9 10 10 10 10 10
4 3 4 4 4 4 4 4 4 5 5 5 6 6 6 6 6 7 7 7 7 7 7 7 7 7 7 7 7 7 7 7 7 7 7 8 8 8 8 9 9 8 8 8 8 8 8 8 8 8 8 8 8 8 8 8 8 8 8 9 9 9 9 9 9 9 9 9 9
3 3 3 3 3 3 3 3 3 4 4 5 5 5 5 6 6 6 6 6 6 6 6 7 7 7 7 7 7 7 7 7 7 7 7 7 7 8 8 8 8 8 8 8 8 8 8 8 8 8 8 8 8 8 8 8 8 8 8 8 8 8 8 8 9 9 9 9 9
2 2 2 2 2 2 2 2 3 3 4 4 4 5 5 5 5 5 6 6 6 6 6 6 6 7 7 7 6 6 6 6 6 6 6 6 7 7 7 7 7 7 7 7 7 7 7 7 7 8 8 8 8 8 8 8 8 8 8 8 8 8 8 8 8 8 8 8 9
2 2 2 2 1 1 1 2 2 2 3 4 4 4 4 4 4 5 5 6 6 6 6 6 6 6 6 7 6 6 6 6 6 6 6 6 6 7 7 7 7 7 7 7 7 7 7 7 7 7 7 7 7 7 7 7 7 7 7 7 7 7 7 7 7 7 8 8 8
1 1 1 1 1 1 1 1 1 2 2 3 3 3 3 3 3 4 4 5 6 6 6 6 6 6 6 6 6 6 6 6 6 6 6 6 6 7 7 7 7 7 7 7 7 7 7 7 7 7 7 7 7 7 7 7 7 7 6 6 6 6 6 6 6 7 7 7 7
1 1 1 0 0 0 0 1 1 1 1 2 2 2 3 3 3 3 3 4 4 5 5 5 5 5 5 5 5 5 5 6 6 6 6 6 6 6 6 6 6 6 6 6 6 6 6 6 6 6 6 7 7 6 6 6 6 6 5 5 5 5 5 5 6 6 6 6 6
1 0 0 0 -0 -0 0 0 0 0 1 1 1 1 2 2 2 3 3 3 3 4 4 4 4 4 4 4 4 4 4 5 5 6 6 6 6 6 6 6 6 6 6 6 6 6 6 6 6 6 6 6 6 6 5 5 5 5 5 5 5 5 5 5 5 5 5 5 5
0 -0 -0 -0 -0 -0 -0 -0 -0 -0 0 0 0 1 1 1 2 2 2 3 3 3 3 3 3 3 3 3 3 3 4 4 5 5 5 5 5 5 5 5 5 5 5 5 6 5 5 5 5 5 5 5 5 5 5 5 4 4 4 4 4 4 4 4 4 4 5 5 4
-0 -0 -0 -0 -0 -0 -0 -0 -0 -0 -0 -0 0 0 0 1 1 1 2 2 2 3 3 3 3 3 3 3 3 3 3 3 4 4 5 5 5 5 5 5 5 5 5 5 5 5 5 5 5 4 4 4 4 4 4 4 4 4 4 4 4 4 4 4 4 4 4 4 3
-1 -1 -1 -1 -1 -1 -1 -1 -1 -0 -0 -0 -0 0 0 0 1 1 1 1 2 2 2 3 3 3 3 3 3 3 3 3 4 4 4 4 4 4 4 4 4 4 4 4 4 4 4 4 4 4 4 4 4 3 3 3 3 3 3 3 3 3 3 3 3 3 3 3 3
-1 -1 -1 -1 -1 -1 -1 -1 -1 -1 -0 -0 -0 -0 0 0 0 1 1 1 1 2 2 2 2 2 3 3 3 3 3 4 4 4 4 4 4 4 4 4 4 4 4 4 4 3 3 3 3 3 3 3 3 3 2 2 2 2 2 2 2 2 2 2 2 2 2 2 2
-1 -1 -1 -1 -1 -1 -1 -1 -1 -1 -1 -0 -0 -0 -0 0 0 0 1 1 1 1 1 2 2 2 2 2 3 3 3 3 3 3 3 3 3 3 3 4 4 4 4 3 3 3 3 3 3 3 3 2 2 2 2 2 2 2 2 1 1 1 1 1 1 1 1 1 1
-1 -1 -1 -1 -1 -1 -1 -1 -1 -1 -1 -1 -1 -0 -0 0 0 1 1 1 1 1 1 1 2 2 2 2 2 2 3 3 3 3 3 3 3 3 3 3 3 3 3 2 2 2 2 2 2 2 2 2 2 2 2 1 1 1 1 1 1 1 1 1 1 1 1 1 1
-1 -1 -1 -1 -1 -1 -1 -1 -1 -1 -1 -1 -1 -1 -0 -0 0 1 1 1 1 1 1 1 1 1 2 2 2 2 2 2 2 2 3 2 2 2 2 2 2 2 2 2 2 2 2 2 2 2 2 2 2 1 1 1 1 1 1 1 1 1 1 1 1 1 0 0 0
-1 -1 -1 -1 -1 -1 -1 -1 -1 -1 -1 -1 -1 -1 -0 -0 0 1 1 1 1 1 1 1 1 1 1 1 1 1 1 2 2 2 2 2 2 1 1 1 1 1 2 2 2 2 1 1 1 1 1 1 1 1 1 1 1 1 1 1 0 0 0 0 0 0 0 0 0
-1 -1 -1 -1 -1 -1 -1 -1 -1 -1 -1 -1 -1 -1 -1 -0 0 0 1 1 1 1 1 1 1 1 1 1 1 1 1 1 1 2 2 1 1 1 1 1 1 1 1 1 1 1 1 1 1 1 1 1 1 1 1 1 1 1 0 0 0 0 0 0 0 -0 -0 -0 -0
-1 -1 -1 -1 -1 -1 -1 -1 -1 -1 -1 -1 -1 -1 -1 -0 0 0 0 0 0 1 1 1 0 0 1 1 1 1 1 1 1 1 1 1 1 1 1 1 1 1 1 1 1 1 1 1 0 0 0 0 0 0 0 0 0 0 0 0 0 0 0 0 0 -0 -0 -0 -0
-1 -2 -2 -1 -1 -1 -1 -1 -1 -1 -1 -1 -1 -1 -1 -0 -0 -0 -0 0 0 0 0 0 0 0 0 0 0 0 0 0 0 1 1 1 1 1 1 1 1 1 1 1 1 1 1 1 0 0 0 0 0 0 0 0 0 0 -0 -0 -0 -0 -0 -0 -0 -0 -0 -0 -0
-2 -2 -2 -2 -2 -1 -1 -1 -1 -1 -1 -1 -1 -1 -1 -0 -0 -0 -0 0 -0 -0 -0 -0 -0 -0 -0 -0 -0 -1 -1 -0 -0 -0 0 0 1 0 0 0 0 1 1 1 1 0 0 0 0 0 0 0 0 0 0 0 -0 -0 -0 -0 -0 -0 -0 -0 -0 -0 -0 -0 -0
-2 -2 -2 -2 -2 -2 -2 -2 -1 -1 -1 -1 -1 -1 -0 -0 -0 -0 -1 -0 -0 -1 -1 -1 -1 -1 -1 -1 -1 -1 -1 -1 -1 -1 -0 -0 0 0 0 0 0 0 0 0 0 0 0 0 0 0 0 -0 -0 -0 -0 -0 -0 -0 -0 -0 -0 -0 -0 -0 -0 -0 -0 -0 -0
-2 -2 -2 -2 -2 -2 -2 -2 -2 -2 -1 -1 -1 -1 -0 -0 -0 -1 -1 -1 -1 -1 -1 -1 -1 -1 -1 -1 -1 -1 -1 -1 -1 -1 -1 -1 -1 -1 -0 -0 -0 -0 -0 -0 -0 -0 -0 -0 0 0 0 0 -0 -0 -0 -0 -0 -0 -0 -0 -0 -0 -0 -0 -0 -0 -0 -0 -0
-2 -2 -2 -2 -2 -2 -2 -2 -2 -2 -2 -2 -1 -1 -1 -1 -0 -1 -1 -1 -1 -1 -1 -1 -1 -2 -2 -1 -1 -1 -1 -1 -1 -1 -1 -1 -1 -1 -1 -1 -0 -0 -0 -0 -0 -0 -0 -0 -0 -0 0 0 0 0 0 0 -0 -0 -1 -1 -1 -1 -1 -1 -1 -1 -1 -1 -1
-2 -2 -2 -2 -2 -2 -2 -2 -2 -2 -2 -2 -2 -1 -1 -1 -1 -1 -1 -1 -1 -1 -1 -1 -1 -2 -2 -2 -2 -2 -2 -2 -1 -1 -1 -1 -1 -1 -1 -1 -1 -1 -0 -0 -1 -1 -1 -1 -1 -0 -0 0 0 0 0 0 -0 -0 -1 -1 -1 -1 -1 -1 -1 -1 -1 -1 -1
-2 -2 -2 -2 -2 -2 -2 -2 -2 -2 -2 -2 -2 -2 -1 -1 -1 -1 -1 -1 -1 -1 -1 -1 -1 -2 -2 -2 -2 -2 -2 -1 -1 -1 -1 -1 -1 -2 -1 -1 -1 -1 -1 -1 -1 -1 -1 -1 -1 -1 -0 -0 -0 0 0 0 -0 -0 -1 -1 -1 -1 -1 -2 -2 -2 -1 -1 -1
-3 -3 -3 -3 -2 -2 -2 -2 -2 -2 -2 -2 -2 -2 -2 -2 -1 -1 -1 -1 -1 -1 -1 -1 -1 -1 -1 -2 -2 -2 -2 -1 -1 -1 -1 -1 -1 -2 -2 -2 -1 -1 -1 -1 -1 -1 -1 -1 -1 -1 -1 -0 -0 -0 -0 -0 -0 -0 -1 -1 -1 -1 -2 -2 -2 -2 -2 -2 -2
-3 -3 -3 -3 -3 -2 -2 -2 -2 -2 -2 -2 -2 -2 -2 -2 -2 -2 -1 -1 -1 -1 -1 -1 -1 -1 -1 -2 -2 -2 -2 -2 -2 -1 -1 -1 -1 -2 -2 -2 -2 -1 -1 -1 -1 -1 -1 -1 -1 -1 -1 -1 -1 -0 -0 -0 -0 -1 -1 -1 -1 -1 -2 -2 -2 -2 -2 -2 -2
-3 -3 -3 -3 -3 -3 -3 -2 -2 -2 -2 -2 -2 -2 -2 -2 -2 -2 -2 -2 -2 -2 -2 -2 -1 -2 -2 -2 -2 -2 -2 -2 -2 -2 -2 -2 -2 -2 -2 -2 -2 -2 -1 -1 -1 -1 -0 -0 -1 -1 -1 -1 -1 -1 -1 -1 -1 -1 -1 -1 -1 -1 -2 -2 -2 -2 -2 -2 -2
-3 -3 -3 -3 -3 -3 -3 -3 -3 -2 -2 -2 -2 -2 -2 -2 -2 -2 -2 -2 -2 -2 -2 -2 -2 -2 -2 -2 -2 -2 -2 -2 -2 -2 -2 -2 -2 -2 -2 -2 -2 -2 -2 -1 -1 -1 -1 -0 -0 -1 -1 -1 -1 -1 -1 -1 -1 -1 -1 -1 -1 -1 -2 -2 -2 -2 -2 -2 -2
-3 -3 -3 -3 -3 -3 -3 -3 -3 -3 -3 -2 -2 -2 -2 -2 -2 -2 -2 -2 -2 -2 -2 -2 -2 -2 -2 -2 -2 -2 -2 -2 -2 -2 -2 -2 -2 -2 -2 -2 -2 -2 -2 -2 -2 -1 -1 -1 -1 -1 -1 -1 -1 -1 -1 -1 -1 -1 -1 -1 -1 -1 -2 -2 -2 -2 -2 -2 -2
-3 -3 -3 -3 -2 -2 -3 -3 -3 -3 -3 -2 -2 -2 -2 -2 -2 -2 -2 -2 -2 -2 -2 -2 -2 -2 -2 -2 -2 -2 -2 -2 -2 -2 -2 -2 -2 -2 -2 -2 -2 -2 -2 -2 -2 -1 -1 -1 -2 -2 -1 -1 -1 -2 -2 -2 -2 -2 -2 -2 -1 -1 -2 -2 -2 -2 -2 -2 -2
-3 -3 -3 -3 -3 -3 -3 -3 -3 -3 -3 -2 -2 -2 -2 -2 -2 -2 -2 -2 -2 -2 -2 -2 -2 -2 -2 -2 -2 -2 -2 -2 -2 -2 -2 -2 -2 -2 -2 -2 -2 -2 -2 -2 -2 -2 -2 -2 -2 -2 -2 -2 -2 -2 -2 -2 -2 -2 -2 -2 -2 -2 -2 -2 -2 -2 -2 -3 -3
Height
762 761 759 757 756 754 752 750 748 746 744 742 740 739 737 736 734 733 732 733 733 734 735 735 735 735 734 733 732 731 730 729 730 730 730 730 731 731 732 733 734 734 735 736 736 737 737 737 737 737 738 738 739 739 740 741 741 742 742 742 742 742 742 743 743 744 744 744 745
762 760 759 757 755 753 751 749 747 745 743 742 740 738 736 734 733 732 731 731 731 732 733 734 735 735 735 735 734 733 731 730 729 729 729 729 730 730 731 732 732 733 734 735 736 736 737 737 737 737 737 738 738 739 740 740 741 741 741 742 742 742 742 742 743 743 743 744 744
761 760 758 756 754 752 750 748 746 744 742 741 739 737 735 733 732 731 730 730 730 730 730 732 733 735 736 736 736 735 734 732 731 729 728 729 729 730 730 731 732 733 734 735 735 736 736 736 736 737 737 737 738 739 739 740 740 741 741 741 741 741 742 742 742 742 742 743 743
761 759 757 755 753 752 749 747 745 743 741 740 738 736 734 732 731 730 729 728 728 728 728 729 730 732 734 736 736 736 735 734 732 730 729 728 729 729 730 731 731 732 733 734 734 735 735 736 736 737 737 738 738 738 739 739 740 740 740 740 741 741 741 741 741 742 742 742 742
760 759 757 755 753 751 749 747 744 742 740 739 737 735 733 732 730 729 728 727 727 727 726 727 727 730 733 734 735 735 735 734 732 731 729 728 728 728 729 730 730 731 732 732 733 734 735 735 736 737 737 738 738 739 739 739 740 740 740 740 740 740 740 740 740 741 741 741 741
760 758 756 754 752 750 748 746 743 741 740 738 737 735 733 732 730 729 727 726 726 725 725 725 726 728 731 733 734 734 733 732 732 731 730 728 728 727 728 728 729 730 731 732 732 733 734 735 736 737 738 738 739 739 739 739 739 739 739 739 739 739 739 739 739 740 740 740 740
760 758 756 754 752 749 747 745 742 740 738 737 736 734 733 732 730 729 728 727 725 724 723 723 724 727 730 732 732 732 732 732 731 731 730 729 728 727 727 728 728 729 730 731 732 732 734 735 736 737 737 738 739 739 739 739 739 738 738 738 738 738 738 738 738 739 739 739 739
759 758 756 753 751 749 746 744 742 740 738 736 734 733 732 731 730 729 728 728 726 724 723 723 723 725 727 730 731 731 731 730 730 731 731 730 729 728 728 727 728 728 729 730 730 731 732 734 735 736 736 737 737 738 738 738 738 737 737 737 737 737 737 737 737 738 738 738 738
759 757 755 753 751 748 746 743 741 739 737 735 734 732 732 730 729 728 727 727 727 725 723 723 722 723 725 727 728 728 728 729 729 730 731 731 730 729 728 728 728 728 728 729 729 730 731 732 733 734 735 736 736 736 737 737 737 736 736 736 736 736 736 737 737 737 737 737 737
759 757 755 752 750 748 746 743 741 738 737 734 733 732 730 729 728 727 726 726 726 725 723 722 722 721 722 723 725 726 726 727 728 730 731 731 731 730 729 728 728 728 728 728 728 729 730 731 732 733 734 734 735 735 735 735 735 735 735 735 735 735 735 736 736 736 737 737 737
759 757 755 753 750 748 746 743 741 738 736 734 732 731 729 728 727 725 724 724 724 723 723 722 720 720 720 721 723 724 725 726 727 729 730 731 731 730 729 728 728 727 727 727 727 727 729 730 732 732 733 733 734 734 734 734 734 734 734 735 735 735 735 735 735 735 736 736 736
758 757 755 753 751 748 746 743 740 738 735 733 732 730 728 727 726 724 723 722 721 721 721 721 719 718 718 719 721 722 723 724 726 727 729 730 730 730 729 728 727 727 727 727 727 727 728 730 731 732 732 732 733 733 734 734 734 734 734 734 734 734 734 734 735 735 735 735 735
758 757 754 752 751 748 746 743 740 737 735 733 731 729 727 726 724 723 722 720 719 719 719 719 719 717 717 717 719 721 722 723 724 726 728 729 729 729 728 727 726 726 726 726 726 727 728 729 730 731 732 732 732 733 733 733 733 733 733 733 733 733 734 734 734 734 734 735 735
758 756 754 752 750 748 746 743 740 737 735 733 731 729 727 725 723 722 721 719 718 717 717 717 717 716 715 716 717 719 721 722 723 725 727 727 728 727 727 726 725 725 725 725 726 727 727 729 730 730 731 731 732 732 732 732 732 732 732 732 732 732 733 733 733 734 734 734 734
758 756 754 752 750 748 746 743 740 738 736 733 731 729 727 725 723 722 720 719 717 716 716 716 715 715 714 715 716 717 719 721 722 723 725 726 726 726 725 725 724 724 724 725 725 726 727 728 729 729 730 730 731 731 731 731 731 731 731 731 732 732 732 733 733 733 733 733 733
757 756 754 752 750 748 746 743 741 738 736 734 732 730 727 726 724 722 721 719 717 716 715 714 714 714 714 714 715 716 717 718 720 722 723 723 724 724 723 723 723 723 724 724 725 725 726 727 728 728 728 729 729 729 729 730 730 730 731 731 731 732 732 733 733 733 733 733 733
757 756 754 752 750 748 746 744 741 739 737 735 732 730 728 726 724 723 721 720 718 717 715 715 715 715 715 716 716 716 716 717 718 720 721 721 722 722 722 722 722 722 723 723 724 725 725 726 727 727 728 728 728 729 729 729 730 730 731 731 732 732 732 733 733 733 733 733 733
758 756 754 752 750 748 746 744 742 739 737 735 733 731 729 727 725 723 722 721 719 718 717 716 716 716 717 717 717 717 717 717 718 719 719 720 720 721 721 722 722 722 722 722 723 724 724 725 726 727 728 728 728 728 729 729 730 730 731 731 732 732 732 733 733 733 733 733 733
758 756 754 752 751 748 747 744 742 740 738 736 734 732 730 728 726 724 723 722 720 719 718 718 718 718 718 719 719 719 719 718 718 718 718 719 720 720 721 721 722 722 722 722 722 723 724 726 727 727 728 728 728 729 729 729 730 731 731 732 732 732 733 733 733 733 733 734 734
758 756 754 753 751 749 747 745 742 740 738 737 735 732 731 728 727 725 724 722 722 721 720 720 719 720 720 720 720 720 720 719 719 718 718 719 719 720 720 721 721 721 720 721 722 723 725 726 727 727 728 728 729 729 730 730 730 731 731 732 732 732 733 733 733 734 734 734 734
758 757 755 753 751 749 747 745 743 741 739 737 735 733 731 729 727 726 725 723 722 722 721 721 721 721 721 721 721 721 721 720 719 719 719 719 719 719 720 720 720 720 720 720 722 723 725 726 727 727 728 729 729 730 730 730 730 731 731 732 732 733 733 734 734 734 734 734 734
759 757 756 754 752 750 748 746 744 742 740 738 736 734 732 730 728 727 726 724 723 723 722 722 722 722 722 722 722 722 721 721 720 720 720 720 719 719 720 720 720 720 720 721 722 723 725 726 727 727 728 729 730 731 731 731 731 731 732 732 733 733 734 734 734 735 735 735 734
759 758 756 754 752 751 748 746 744 742 740 738 737 735 732 731 729 728 727 725 724 724 723 723 723 723 723 723 722 722 722 721 721 721 721 721 720 720 720 720 720 720 721 722 723 724 725 726 727 728 729 730 730 731 731 731 731 732 732 733 733 734 734 735 735 735 735 735 735
760 758 757 755 753 751 749 747 745 743 741 739 737 735 733 732 730 728 727 726 725 725 725 724 724 724 723 723 723 722 722 722 722 722 722 721 721 721 721 721 721 721 722 723 724 725 726 727 727 728 729 730 731 731 731 731 732 732 732 733 733 734 734 735 735 735 735 735 736
761 759 757 755 753 752 749 747 746 744 742 740 738 736 734 732 731 729 728 727 727 726 726 725 725 725 724 723 723 723 723 723 723 723 722 722 722 722 722 722 722 722 723 724 726 726 727 727 728 729 730 731 731 731 731 732 732 732 733 733 734 734 735 735 735 736 736 736 736
761 759 758 756 754 752 750 748 747 745 743 741 739 737 735 733 732 731 729 728 728 727 727 727 726 726 725 724 724 724 724 724 724 724 724 723 723 723 723 723 723 724 725 726 727 728 728 729 730 731 731 731 732 732 732 732 732 732 733 734 734 735 735 735 736 736 737 737 737
762 760 759 757 755 753 751 749 747 746 744 742 740 738 736 735 734 732 731 730 729 729 728 728 727 727 727 726 725 725 725 725 725 725 725 725 725 724 725 725 725 726 727 728 728 729 730 731 732 732 732 732 732 732 732 733 733 733 734 734 735 735 735 736 736 737 737 737 738
763 761 759 757 756 754 752 750 749 747 745 743 742 740 738 737 736 734 733 732 731 730 730 730 729 729 728 727 727 727 727 727 727 727 727 727 726 726 727 727 727 728 729 729 730 731 732 733 733 733 733 733 733 733 733 734 734 734 734 735 735 736 736 736 737 737 737 738 738
764 762 761 759 757 755 753 752 750 748 747 745 743 741 739 738 737 736 735 734 733 732 732 732 731 730 730 730 730 730 730 729 729 729 728 728 728 728 729 729 729 730 731 731 732 732 733 734 735 735 735 735 735 735 735 735 735 735 735 736 736 736 737 737 737 738 738 738 739
765 763 762 760 758 757 755 753 752 750 748 746 744 742 741 740 739 738 737 736 736 735 735 734 733 732 732 732 732 732 732 731 731 730 729 730 730 731 731 731 731 732 732 733 733 734 735 735 736 736 736 736 736 736 736 736 736 736 736 736 737 737 737 737 738 738 738 739 739
766 764 763 761 760 758 757 755 753 752 750 748 746 744 743 742 741 740 739 738 738 738 737 736 736 735 735 734 734 734 734 733 732 732 731 731 732 732 732 733 733 734 734 735 735 736 736 737 737 737 737 737 737 737 737 736 736 736 736 737 737 737 737 737 738 738 739 739 739
767 765 764 762 761 759 758 756 755 753 752 750 748 746 745 743 743 742 741 741 740 740 739 739 738 737 737 736 736 736 736 735 735 734 734 734 734 734 734 734 735 735 736 736 737 737 737 737 737 737 737 737 737 737 737 737 737 737 737 737 737 737 737 738 738 738 739 739 739
768 766 765 763 762 760 759 757 756 755 753 751 750 748 747 745 744 744 743 743 742 742 741 741 740 740 739 738 738 738 738 737 737 737 737 736 736 736 736 736 737 737 737 737 737 738 738 738 738 738 738 738 738 738 738 737 737 737 737 737 737 737 738 738 738 738 739 739 739
769 767 766 764 763 762 760 759 757 756 755 753 752 750 749 747 746 745 745 744 744 744 743 743 742 742 741 741 740 740 739 739 739 739 739 739 738 738 738 738 739 739 739 739 739 739 739 739 739 739 739 739 739 739 738 738 738 737 737 737 737 738 738 738 738 739 739 739 740
770 768 767 765 764 763 761 760 759 757 756 755 753 752 751 749 748 747 746 746 746 745 745 744 744 743 742 742 742 741 741 741 741 741 741 741 740 740 740 740 741 741 741 740 740 740 739 739 740 740 740 740 739 739 739 738 738 738 737 737 738 738 738 738 739 739 739 740 740
771 770 768 767 765 764 762 761 760 759 757 756 755 754 752 751 750 749 748 747 747 746 746 745 745 744 744 743 743 743 742 742 742 742 742 742 742 742 742 742 742 742 741 741 741 740 740 740 740 740 740 740 740 739 739 739 738 738 738 738 738 738 738 739 739 740 740 740 741
772 771 769 768 767 765 764 762 761 760 759 757 757 755 754 753 752 750 749 749 748 747 747 747 746 746 745 745 744 744 744 743 743 743 743 743 743 743 742 742 742 742 742 742 741 741 741 741 741 741 741 740 740 740 739 739 738 738 738 738 738 739 739 739 740 740 741 741 741
773 772 771 769 768 766 765 764 762 761 760 759 758 757 756 754 753 752 751 750 749 749 748 748 747 747 746 746 745 745 745 744 744 744 744 744 744 743 743 743 743 742 742 742 742 742 742 741 741 741 741 741 740 740 739 739 739 739 739 739 739 739 739 740 740 741 741 741 742
774 773 772 770 769 767 766 765 764 762 762 760 759 758 757 756 754 753 752 751 750 750 749 748 748 747 747 747 746 746 745 745 745 745 745 744 744 744 744 744 744 744 743 743 743 742 742 742 741 741 741 741 740 740 739 739 739 739 739 740 740 740 740 740 741 741 742 742 742
775 774 772 771 770 768 767 766 765 764 763 762 760 759 758 757 755 754 753 752 751 750 750 749 748 748 747 747 747 746 746 746 746 746 746 746 746 746 745 745 745 745 744 744 744 743 743 742 741 741 741 741 741 740 740 740 740 740 740 740 740 741 741 741 741 742 742 742 742
776 774 773 772 771 769 768 767 766 765 764 762 761 760 759 758 757 755 754 753 752 751 751 750 749 749 748 748 747 747 747 747 747 747 747 747 747 747 747 746 746 746 745 745 744 744 743 742 741 741 741 741 741 741 741 741 741 741 741 741 741 741 741 742 742 742 742 743 743
Wind_Speed
28 29 28 28 28 27 27 26 26 26 26 27 28 27 26 23 21 18 16 15 14 14 15 17 20 22 22 18 14 12 13 14 14 13 12 10 10 9 9 9 7 6 5 5 4 4 4 4 5 6 7 7 8 8 7 7 7 7 8 8 9 9 9 10 10 10 10 10 10
29 30 30 29 29 28 28 28 27 26 26 27 28 28 26 24 21 19 17 15 14 13 13 15 16 18 18 16 13 10 9 9 10 11 10 9 9 9 8 8 7 6 5 5 5 4 4 3 3 4 6 7 8 8 9 9 9 9 9 10 10 10 10 10 11 11 11 11 11
30 30 30 30 30 30 29 29 28 27 27 28 29 29 28 25 22 20 18 17 15 14 14 14 15 16 17 16 14 12 10 8 7 8 9 9 8 8 8 7 7 6 6 5 5 4 4 2 2 3 4 6 7 8 8 8 8 9 9 10 10 10 10 10 10 11 11 11 11
31 31 31 31 31 31 31 30 30 29 27 27 28 29 28 26 23 21 18 16 15 14 13 14 15 16 18 18 17 15 13 11 9 9 9 9 9 9 9 8 7 7 6 5 4 3 3 2 2 2 3 5 6 7 7 7 7 8 9 10 10 10 10 10 10 10 10 10 10
31 31 31 31 32 32 32 31 31 29 27 26 26 27 28 26 22 18 16 14 14 13 12 12 12 14 17 20 21 21 20 17 14 11 11 11 11 10 10 9 8 6 5 4 3 2 2 2 2 3 4 5 6 7 7 7 8 8 9 9 9 9 10 10 10 9 9 10 10
31 31 32 32 32 32 32 32 31 30 28 26 26 26 27 27 22 16 12 10 10 10 9 8 8 10 13 17 19 19 18 15 12 11 10 10 10 10 9 8 8 8 8 8 8 8 9 8 8 7 6 7 8 9 9 9 9 9 9 9 9 9 9 10 10 10 10 10 10
30 31 32 32 33 33 33 33 32 30 29 26 25 26 27 28 25 19 13 10 8 8 7 7 7 8 10 12 12 11 10 8 7 7 6 7 7 8 8 8 8 8 8 8 8 9 10 10 10 9 8 9 9 10 10 10 10 10 10 9 9 9 9 9 10 10 11 11 11
29 30 31 32 33 33 33 33 32 31 28 26 25 25 27 29 28 26 22 16 11 8 8 7 8 9 9 10 9 8 6 5 5 5 5 4 5 6 7 8 8 8 8 8 8 8 8 8 9 9 9 9 10 10 10 9 9 9 9 9 9 9 9 9 9 10 11 11 12
29 30 31 32 32 32 32 32 31 30 28 27 26 27 28 29 30 30 29 25 18 12 9 8 8 8 9 9 8 7 6 5 4 5 5 5 6 6 7 7 7 7 7 7 8 8 7 7 8 8 8 9 9 9 9 9 9 9 9 9 9 9 9 8 9 9 10 10 11
29 30 30 30 31 31 32 32 30 29 28 27 27 27 28 28 29 30 30 28 23 18 13 11 9 9 9 9 9 9 8 7 6 6 7 8 8 7 7 7 7 7 7 7 7 7 6 6 6 7 7 7 8 8 9 9 9 9 10 10 9 9 9 9 9 9 9 10 10
29 29 29 29 29 30 31 31 29 28 26 26 26 27 27 28 29 29 29 29 27 24 20 16 13 12 10 10 10 10 10 10 10 9 9 9 8 8 7 7 7 7 6 6 5 5 5 5 4 5 5 6 6 7 7 8 8 9 9 10 10 10 10 10 10 10 10 10 10
28 28 28 28 29 29 30 29 28 27 26 25 26 26 26 27 27 28 28 29 30 30 26 21 18 16 14 12 11 11 12 12 12 11 10 9 9 8 8 7 7 6 6 5 4 4 4 3 3 3 3 4 4 5 5 6 6 7 7 8 8 9 9 9 10 11 11 12 12
28 28 27 27 28 29 29 28 27 26 25 25 25 24 23 23 24 24 25 25 27 29 29 26 23 20 18 15 13 12 13 13 13 12 10 9 8 7 7 6 6 6 6 5 5 5 4 3 3 3 2 2 3 3 3 4 4 4 4 5 5 5 6 7 8 9 11 12 13
27 27 27 27 28 28 27 27 26 25 25 25 24 23 21 19 19 19 21 22 23 25 27 28 25 22 20 18 16 14 13 13 12 11 10 9 8 6 6 6 6 6 6 6 6 5 4 4 3 2 2 2 1 1 1 1 1 1 2 2 3 3 4 4 5 6 7 9 10
26 26 27 27 27 26 26 25 25 25 25 26 25 22 19 17 15 14 13 14 16 18 19 19 19 18 18 18 17 16 15 14 12 11 10 9 7 6 6 6 7 7 7 7 6 6 5 4 4 3 2 2 2 1 1 1 2 2 2 2 3 3 4 4 4 5 5 5 5
26 26 26 26 26 26 25 25 24 24 25 25 25 23 21 18 16 14 12 10 8 6 5 5 7 9 11 14 15 15 15 15 12 11 10 9 8 7 7 7 8 8 7 7 7 6 6 6 5 5 4 4 4 4 4 5 5 5 4 4 4 4 4 4 4 4 5 5 5
25 25 25 26 26 25 24 24 24 24 25 25 24 23 21 19 17 15 13 12 10 7 5 2 0 2 5 7 9 11 13 14 13 12 10 9 9 8 8 8 8 8 8 8 8 8 7 7 7 6 6 6 6 7 7 7 7 6 6 6 5 5 5 4 4 4 4 5 5
24 25 25 26 26 25 25 24 24 25 25 25 23 22 21 19 17 15 13 12 11 9 8 5 3 0 2 3 5 7 9 11 12 11 11 10 10 9 9 9 9 9 10 10 10 10 10 9 8 8 8 8 9 9 9 9 8 7 7 6 5 5 5 4 4 4 4 4 4
23 24 25 26 25 25 25 24 25 25 25 25 24 22 21 19 16 14 13 11 10 9 8 6 3 1 2 3 3 5 6 8 10 11 11 11 10 10 10 11 11 12 12 12 11 12 11 10 10 10 10 10 10 10 9 9 9 8 7 6 5 5 4 4 4 4 4 3 4
23 24 25 25 25 25 25 25 25 25 25 25 24 23 21 19 16 14 12 11 9 7 6 6 4 1 1 2 3 4 5 7 9 11 11 11 12 12 12 12 13 14 14 14 14 14 13 12 12 12 12 11 11 11 11 10 9 9 8 7 6 5 5 5 5 5 6 6 6
23 24 24 24 25 25 25 25 25 25 25 25 24 23 21 20 18 15 13 11 9 7 6 6 4 2 1 2 2 3 5 7 9 11 12 12 12 13 13 13 13 14 15 16 16 16 15 14 14 13 13 12 12 12 12 12 11 10 10 9 8 8 7 7 8 8 9 9 10
23 24 24 24 24 24 24 25 25 26 26 26 25 24 21 20 18 16 14 11 9 7 6 6 5 4 3 4 4 3 3 6 8 10 10 11 12 13 14 14 14 14 15 16 16 16 15 15 14 13 13 13 13 13 12 12 12 12 12 11 11 11 10 10 10 10 10 11 11
23 23 23 23 24 24 24 25 26 26 26 27 26 25 23 20 18 16 14 11 9 8 7 5 4 3 3 2 2 1 3 5 6 7 8 9 12 14 15 16 16 16 15 14 14 14 14 14 13 13 12 12 12 12 12 12 12 12 12 12 12 12 12 11 11 11 11 11 11
23 23 23 23 25 26 26 26 26 26 27 27 27 26 24 22 19 16 14 11 10 8 7 6 6 6 7 8 8 8 8 7 6 5 7 10 13 15 16 17 17 17 15 14 13 12 12 13 13 12 12 12 12 12 12 13 13 13 13 12 12 12 12 12 12 12 11 11 11
23 22 23 23 25 27 28 28 27 26 27 28 28 27 26 23 20 18 15 13 10 9 8 9 10 12 13 14 14 13 12 10 8 7 9 12 14 16 18 18 18 18 16 15 13 13 12 13 13 13 13 13 13 13 13 13 13 13 13 13 12 12 11 11 11 11 11 11 11
23 23 23 24 26 27 28 28 27 26 27 28 29 29 27 24 20 18 17 16 13 11 10 11 13 14 15 16 16 16 15 13 12 10 11 13 16 18 19 20 20 19 18 17 16 15 15 14 14 15 15 15 15 15 15 15 14 14 14 13 12 11 11 10 10 10 9 9 9
24 24 24 25 26 28 29 29 27 27 27 28 29 29 27 23 19 19 19 18 17 14 13 13 14 15 15 15 16 17 17 16 15 13 14 16 18 20 22 22 22 21 20 18 18 17 16 15 15 15 15 15 15 15 15 15 15 14 14 13 12 12 11 10 10 9 9 8 7
25 24 24 26 27 28 29 29 28 27 27 28 29 29 27 23 19 19 21 20 19 17 15 14 15 16 16 17 18 18 18 18 17 17 17 18 20 22 22 22 21 20 19 18 18 17 16 15 14 14 14 14 14 14 14 13 13 13 12 12 11 11 10 10 9 9 8 7 7
25 25 25 25 26 27 28 28 28 27 28 28 28 28 27 22 19 20 21 21 20 19 17 16 17 19 20 20 21 20 20 20 20 19 20 20 21 21 21 22 21 20 18 18 17 17 16 14 13 12 12 12 12 12 11 11 11 10 10 10 9 9 9 8 8 8 7 6 6
25 24 24 25 25 26 27 28 27 28 28 28 27 27 26 22 18 19 21 21 20 20 19 18 19 20 21 22 22 22 22 22 22 22 22 21 20 20 20 20 20 19 17 17 16 16 15 14 12 11 10 10 10 10 9 9 9 9 9 9 8 8 7 7 7 6 6 6 5
25 24 24 24 24 25 26 27 27 28 28 28 27 26 24 21 17 17 19 20 20 20 20 20 20 20 21 21 21 21 22 22 23 24 24 23 22 20 20 19 19 17 16 15 14 14 13 12 11 10 9 9 8 8 8 8 8 8 8 8 7 7 7 6 6 6 6 6 5
25 25 24 24 24 24 25 26 27 27 28 29 27 26 24 21 17 16 17 18 18 19 19 20 20 20 20 20 20 20 20 20 21 21 21 22 22 22 21 20 18 16 15 13 13 12 11 11 10 9 8 8 7 7 7 7 7 7 7 7 7 6 6 6 5 5 5 6 5
25 25 25 24 23 23 24 25 25 26 27 28 27 26 24 22 18 16 16 16 17 17 18 18 18 19 19 19 19 18 18 18 18 18 18 18 19 19 20 19 18 16 14 12 11 10 10 9 9 8 7 7 6 6 6 6 6 7 7 7 7 7 6 6 6 5 5 6 6
25 25 25 24 23 23 23 24 24 24 25 26 27 26 25 23 20 17 15 14 14 15 15 15 16 16 17 17 18 17 16 16 16 16 16 16 16 17 17 17 17 15 14 12 10 9 8 8 8 7 7 6 6 5 5 5 6 7 7 7 7 7 7 7 6 5 5 5 6
24 24 24 24 23 23 23 23 23 23 23 24 25 26 25 24 22 19 16 14 13 13 14 14 14 14 15 16 16 16 16 16 15 15 14 14 15 15 15 15 14 14 13 12 10 8 7 7 6 6 6 6 5 5 5 5 6 7 7 8 8 8 8 7 6 5 5 5 7
23 23 23 23 23 23 23 23 23 23 22 23 24 24 25 24 23 21 18 15 14 13 13 13 14 14 14 14 15 15 16 16 16 15 14 14 14 14 14 14 13 13 13 12 10 8 7 6 5 5 5 5 5 5 5 6 7 7 7 8 8 8 7 7 7 6 6 6 8
22 22 22 22 22 22 22 23 23 23 22 22 22 23 23 23 22 21 19 17 15 14 13 12 12 13 13 13 14 14 14 15 15 15 15 15 15 15 14 14 14 13 13 12 11 9 7 6 5 5 5 5 5 6 6 7 8 8 8 8 8 8 8 8 8 8 8 8 9
21 21 21 21 20 21 21 22 22 22 22 22 22 22 22 22 21 20 19 17 16 14 12 11 11 10 11 11 12 13 13 13 14 14 14 14 14 14 14 14 14 14 13 13 12 10 9 8 5 4 5 5 6 7 8 8 9 9 9 8 8 8 8 8 9 9 9 9 9
21 21 20 20 20 20 20 20 20 21 21 21 21 21 21 21 20 19 18 17 16 14 13 11 10 9 9 10 11 12 12 13 13 13 13 13 13 13 13 13 13 13 12 12 12 11 11 9 5 3 5 6 7 8 9 9 9 9 9 8 8 8 8 8 9 9 9 9 9
22 21 21 21 20 19 19 19 19 20 20 20 20 20 20 20 19 18 17 16 16 15 14 12 11 10 9 10 10 11 12 12 12 11 11 11 11 11 12 12 12 11 11 11 11 11 12 11 6 6 8 9 9 10 10 9 9 9 9 8 8 8 8 8 8 8 8 9 10
22 22 22 21 21 20 19 19 19 19 19 19 19 19 19 19 19 18 17 16 16 15 15 13 12 11 10 10 10 10 10 10 10 10 9 9 9 9 10 11 11 11 10 10 10 11 12 11 9 10 10 11 11 11 10 10 10 9 9 9 8 8 8 7 8 8 9 9 10
Wind_Direction
326 324 321 317 314 310 307 304 302 300 298 295 290 284 277 272 268 266 266 269 272 277 284 295 306 315 317 306 283 245 212 199 196 195 192 188 184 184 186 187 186 189 195 200 202 204 210 223 235 243 247 250 251 249 247 244 243 243 242 241 241 241 242 242 242 242 243 245 246
326 323 321 318 315 312 308 305 302 301 299 298 295 290 283 275 269 265 263 261 259 261 267 278 290 302 309 308 296 275 244 212 195 188 184 181 178 178 179 178 176 179 185 191 195 198 201 213 237 251 257 260 260 258 255 252 251 251 251 250 249 249 249 248 248 247 247 248 249
325 323 321 319 316 313 310 306 303 301 300 299 299 295 289 279 271 265 261 257 252 251 254 260 271 282 289 291 289 281 269 247 213 191 182 182 183 182 180 178 178 178 183 187 193 196 197 201 228 250 257 261 264 265 265 263 260 259 257 255 253 251 249 248 249 249 250 250 250
325 323 320 318 316 314 311 307 303 300 299 299 299 298 294 285 274 264 258 253 250 247 247 250 258 266 272 273 271 268 261 249 224 199 187 185 186 187 186 185 184 182 182 181 182 185 189 193 218 244 251 257 262 266 267 264 260 258 257 256 253 248 245 243 245 246 247 247 248
324 322 320 318 316 314 312 308 305 301 298 297 297 297 296 292 281 268 254 247 245 243 241 242 247 255 261 262 261 258 255 250 237 214 192 188 187 188 190 194 197 200 202 204 213 225 230 234 246 256 260 260 260 260 258 254 250 250 252 251 248 244 240 239 239 241 243 244 245
324 322 320 319 317 316 313 311 307 303 299 296 295 294 295 294 287 273 250 232 227 226 225 223 227 239 249 252 253 251 247 240 228 210 194 186 183 184 187 195 210 222 229 231 238 247 254 259 262 263 260 259 257 254 251 248 246 247 249 249 246 241 239 238 238 240 242 243 245
324 323 322 321 319 318 316 314 311 308 303 299 294 292 292 292 286 275 259 240 223 211 203 197 198 213 230 240 243 241 237 231 224 213 202 191 181 173 170 172 179 188 196 203 210 222 234 242 245 246 246 246 247 247 247 247 248 250 251 252 249 245 243 242 243 244 245 246 247
326 325 324 323 322 321 320 318 315 313 309 305 300 295 291 289 283 275 268 262 248 224 205 196 193 201 216 231 238 240 241 245 249 245 235 220 198 183 174 171 170 171 175 180 186 194 204 215 223 229 234 238 241 244 245 248 251 254 256 256 254 251 249 249 249 248 249 249 249
328 327 326 325 324 324 323 321 319 316 313 310 307 303 297 290 283 275 268 263 256 242 223 209 201 201 209 222 231 237 240 244 249 253 248 235 217 203 193 185 180 178 180 182 184 189 197 209 218 226 232 237 242 245 248 251 256 260 261 262 260 257 254 252 253 252 252 251 251
329 328 327 327 326 326 326 324 322 318 315 312 310 308 304 297 287 277 267 260 254 246 235 220 209 204 206 213 223 227 226 223 224 229 231 227 221 214 204 196 188 185 183 183 183 187 198 212 222 230 236 241 247 251 254 257 261 264 266 265 266 265 262 257 255 256 256 255 255
329 329 328 328 328 328 328 326 324 320 316 313 310 308 306 302 295 284 272 260 253 249 243 232 220 212 209 212 217 220 218 214 213 216 221 222 219 212 203 194 185 180 176 173 172 175 186 202 217 229 239 246 252 257 260 263 265 266 268 267 269 269 269 266 262 261 261 261 261
330 329 329 329 329 329 328 326 324 322 318 314 310 306 304 303 301 295 283 268 258 252 248 240 230 221 215 214 214 214 213 210 209 210 213 214 211 204 193 182 173 165 157 147 141 141 148 163 185 209 230 243 251 258 262 264 265 267 268 270 270 271 272 271 269 267 265 265 265
331 331 330 330 330 329 328 326 325 324 322 318 314 309 305 302 300 297 291 281 269 260 253 246 238 229 219 212 209 208 207 205 204 203 203 202 198 190 178 162 148 137 128 122 118 120 129 144 166 190 209 228 242 253 259 263 269 274 280 283 284 284 284 283 278 274 271 269 267
333 333 332 332 331 330 328 327 327 328 328 326 323 320 315 310 304 297 291 285 278 269 260 251 241 230 219 211 204 200 197 194 193 191 190 187 182 172 155 139 129 121 117 115 116 119 127 136 152 167 181 195 217 237 250 264 289 310 327 338 341 338 332 322 310 298 290 284 276
335 335 334 333 332 331 330 330 331 332 334 334 335 334 333 330 327 320 307 291 280 274 266 252 234 219 210 206 199 193 192 193 186 180 178 175 168 158 145 136 129 124 121 121 123 125 127 127 127 125 126 130 130 125 111 96 75 62 52 41 31 21 11 1 350 341 336 328 317
337 336 335 334 334 334 333 334 335 336 338 339 340 341 342 342 342 343 344 339 318 299 278 240 209 198 195 193 188 186 187 190 183 176 172 166 158 151 146 141 134 130 128 127 128 131 129 122 114 109 110 116 115 110 104 96 89 81 75 70 61 46 33 23 9 1 359 356 357
337 336 336 336 336 336 337 337 338 339 340 339 339 341 343 345 345 346 350 355 359 5 11 19 101 180 181 180 179 178 179 181 180 175 167 159 152 148 146 142 136 132 131 130 127 125 122 116 114 114 117 118 115 111 106 100 96 90 82 76 69 58 46 35 19 10 6 3 2
338 337 337 337 338 339 340 340 341 342 342 341 340 341 342 344 345 345 346 351 359 7 11 13 11 11 186 188 183 176 174 175 173 168 161 153 149 146 144 140 134 130 127 126 123 119 114 112 115 118 118 116 113 109 107 103 99 92 84 76 66 57 47 38 27 21 17 10 8
338 338 338 339 340 341 342 342 344 345 345 344 342 341 341 342 343 343 343 344 350 357 2 5 12 65 174 186 184 176 170 167 165 161 155 150 147 145 143 137 132 127 123 119 117 115 113 111 111 111 110 109 107 105 103 101 97 90 82 74 65 57 50 46 44 43 44 43 43
340 340 341 342 343 343 344 345 346 347 346 345 344 343 343 342 341 342 341 339 337 340 344 347 349 349 177 179 183 184 180 174 164 156 150 146 144 142 140 137 133 127 121 116 114 112 111 108 105 102 101 100 99 97 95 94 92 89 84 78 73 68 66 65 65 65 67 69 68
344 344 345 347 347 346 346 347 348 348 347 346 345 345 345 345 343 342 340 337 332 329 329 329 325 307 252 223 225 216 197 174 156 147 143 140 139 138 138 136 132 126 121 118 116 114 111 108 105 103 100 98 96 94 92 91 89 86 85 83 81 80 78 76 73 71 71 71 71
348 350 351 351 351 349 349 350 350 350 349 348 347 346 347 348 347 345 343 340 338 333 327 322 313 295 275 267 273 256 198 158 142 137 134 132 130 128 127 125 122 119 116 116 116 116 114 112 111 109 106 102 99 96 94 91 89 86 83 80 78 76 74 71 68 66 64 64 65
353 355 355 355 354 352 351 352 352 352 351 350 349 348 348 350 351 350 349 348 347 344 340 337 332 324 318 313 335 36 94 112 119 123 122 119 116 114 112 110 109 107 105 106 110 113 114 113 113 112 112 109 106 102 99 95 91 87 82 77 73 69 65 61 58 54 51 50 50
357 358 358 357 357 356 355 354 353 353 353 352 350 349 349 351 354 356 356 356 357 0 8 21 35 46 52 57 60 62 65 68 77 88 95 99 101 101 100 99 98 97 95 95 98 104 109 110 110 111 111 111 108 105 101 98 94 89 83 77 72 68 63 58 52 46 41 37 35
359 1 1 0 359 358 356 355 354 354 354 354 353 352 351 353 358 3 6 9 12 20 36 52 58 59 60 61 60 58 55 51 49 62 80 89 93 93 92 91 90 88 87 86 87 91 97 101 104 104 104 104 102 100 97 94 90 87 83 79 76 71 66 61 54 47 40 35 30
2 3 4 3 2 0 358 356 355 355 356 356 356 354 354 356 3 12 19 23 27 36 49 59 61 61 60 59 57 54 51 48 46 58 77 86 87 87 86 85 84 84 84 84 84 84 85 88 92 94 94 94 92 91 88 86 84 82 80 79 76 73 68 64 59 53 46 39 33
5 6 6 6 5 3 1 359 358 357 357 357 357 356 356 0 11 24 30 33 35 40 49 57 60 61 61 61 59 56 53 51 51 59 73 82 83 83 83 83 83 83 84 83 82 81 81 81 82 83 84 83 82 81 80 79 77 76 75 73 72 69 67 64 60 55 51 45 39
8 8 8 7 6 5 3 2 0 358 357 357 357 357 359 5 19 31 36 37 38 40 44 50 58 63 64 64 62 60 57 54 55 60 69 77 79 80 80 81 81 82 83 82 80 79 78 78 77 77 77 77 77 76 75 75 74 73 72 71 69 66 63 61 59 56 51 44 39
10 9 8 7 6 6 6 4 2 359 357 357 357 359 1 8 23 34 37 38 38 38 39 46 57 63 64 63 60 58 56 55 57 61 66 71 74 76 77 78 78 79 78 77 76 74 74 74 74 75 76 76 78 79 80 81 81 80 79 76 73 69 65 60 56 51 46 40 35
10 9 7 6 6 6 6 6 3 0 358 358 359 360 2 9 24 35 39 40 40 40 41 47 55 60 62 61 58 54 52 52 55 59 62 65 68 70 73 75 76 75 73 72 70 69 67 66 67 70 72 76 79 83 86 88 90 89 87 84 80 75 70 64 57 48 40 32 28
7 6 5 4 4 5 6 7 6 3 1 0 1 2 3 9 24 37 42 44 45 45 47 51 55 58 60 60 58 54 51 51 52 54 56 58 59 61 64 69 71 70 68 66 64 62 59 58 58 60 65 71 76 80 84 88 90 90 90 87 84 81 76 68 61 52 41 32 27
4 4 3 2 2 4 6 7 7 5 4 3 4 4 5 8 22 37 45 47 48 49 50 51 53 56 58 59 58 55 52 50 49 49 51 53 54 55 55 56 58 59 60 57 55 54 54 52 50 50 55 62 68 72 77 83 87 89 88 86 83 80 75 69 62 54 45 38 34
3 2 1 0 1 3 5 7 7 6 6 6 6 7 6 8 17 32 44 47 48 49 50 51 52 53 55 57 57 55 53 51 50 49 48 49 51 52 51 48 46 45 45 45 44 45 47 49 47 44 45 51 58 65 70 79 88 90 88 82 77 72 69 66 61 53 46 40 39
2 1 1 360 1 3 5 6 6 7 7 7 8 8 8 8 12 23 37 45 48 49 51 53 54 54 55 56 56 54 52 51 51 51 51 51 51 52 51 48 43 38 34 35 35 36 41 48 49 45 42 45 51 58 65 74 86 90 87 81 74 69 66 66 62 56 49 44 41
1 1 1 1 2 4 5 5 5 5 6 7 8 9 9 10 12 18 30 43 49 51 52 55 56 57 57 56 55 54 52 50 48 47 49 51 53 53 52 48 43 36 30 28 29 30 35 44 53 52 47 46 48 52 57 67 79 84 83 80 74 71 69 66 60 54 49 48 44
0 0 1 2 3 5 5 5 4 4 5 6 7 8 9 10 13 18 26 37 46 50 52 54 55 57 57 56 55 53 52 49 46 43 42 43 45 48 47 44 39 32 26 23 22 22 26 36 50 53 49 49 50 51 55 63 72 76 78 77 76 76 74 69 60 51 51 55 53
358 359 360 1 3 4 5 5 4 2 1 3 4 5 7 9 12 16 22 30 37 42 46 48 50 53 54 56 56 55 53 50 47 43 40 39 39 39 39 36 33 28 22 18 17 16 15 17 26 38 46 49 51 53 59 65 69 71 72 74 79 81 80 75 65 59 59 64 61
356 357 358 359 1 2 4 4 3 1 359 358 359 1 3 5 8 12 16 21 25 29 32 35 38 44 50 55 57 55 52 49 47 44 42 39 37 35 33 31 27 23 19 15 13 10 6 2 5 25 47 54 56 59 64 67 67 66 66 69 76 82 84 81 74 69 69 71 69
356 356 357 357 358 360 1 2 1 360 357 355 354 356 358 360 2 5 10 13 16 17 19 20 23 31 43 52 56 54 51 48 45 43 40 38 36 32 29 26 23 20 16 12 10 8 3 357 358 37 63 62 62 64 66 67 64 61 59 60 69 78 82 82 81 80 78 75 71
357 357 357 357 357 357 358 358 358 357 355 352 351 352 352 353 355 359 3 7 10 11 12 14 18 26 38 49 52 51 48 45 43 40 38 36 33 29 24 20 19 18 15 12 10 8 4 3 22 66 75 67 65 64 65 65 61 57 52 51 58 70 79 83 87 90 87 77 66
358 358 358 357 356 355 355 355 354 353 351 350 350 350 350 350 351 354 359 3 7 10 12 15 20 29 38 45 46 44 41 39 36 35 33 31 29 26 21 17 16 16 16 13 11 9 10 18 47 71 75 67 65 63 62 61 56 49 43 43 51 62 74 83 90 94 90 79 66